Weather History for Ballenas Island, British Columbia

Change the Weather History Date:

Wednesday, February 20, 2013

  Actual Average Record
Temperature  
Mean Temperature 40 °F -  
Max Temperature 42 °F - - ()
Min Temperature 39 °F - - ()
Degree Days  
Heating Degree Days 24    
Moisture  
Dew Point 37 °F    
Average Humidity 87    
Maximum Humidity 91    
Minimum Humidity 80    
Precipitation  
Precipitation 0.00 in - - ()
Sea Level Pressure  
Sea Level Pressure 29.96 in    
Wind  
Wind Speed 11 mph ()    
Max Wind Speed 23 mph    
Max Gust Speed -    
T = Trace of Precipitation, MM = Missing Value Source: Averaged Metar Reports

Daily Weather History Graph

Daily Weather History Graph

Search for Another Location

Airport:

Trip Planner

Search our weather history database for the weather conditions in past years. The results will help you decide how hot, cold, wet, or windy it might be!

Date:

Astronomy

Feb. 20, 2013 Rise Set
Actual Time 7:15 AM PST 5:45 PM PST
Civil Twilight 6:43 AM PST 6:18 PM PST
Nautical Twilight 6:06 AM PST 6:55 PM PST
Astronomical Twilight 5:29 AM PST 7:32 PM PST
Moon 12:55 PM PST (2/20) 3:57 AM PST (2/20)
Length of Visible Light 11h 34m
Length of Day
10h 29m
Waxing Gibbous, 77% of the Moon is Illuminated
Feb 20
Waxing Gibbous
Feb 25
Full
Mar 4
Last Quarter
Mar 11
New
Mar 19
First Quarter

Hourly Weather History & Observations

Time (PST) Temp. Windchill Dew Point Humidity Pressure Visibility Wind Dir Wind Speed Gust Speed Precip Events Conditions
12:00 AM 39.9 °F 35.1 °F 34.9 °F 82% 29.95 in - WSW 6.9 mph - N/A   Unknown
1:00 AM 40.1 °F 34.7 °F 35.4 °F 83% 29.96 in - SW 8.1 mph - N/A   Unknown
2:00 AM 39.7 °F 34.3 °F 34.5 °F 82% 29.98 in - SW 8.1 mph - N/A   Unknown
3:00 AM 39.6 °F - 34.0 °F 80% 29.97 in - SW 2.3 mph - N/A   Unknown
4:00 AM 39 °F - 35 °F 80% 29.97 in - SSW 3.5 mph - -  
4:00 AM 39.4 °F 37.2 °F 35.1 °F 84% 29.97 in - SSW 3.5 mph - N/A   Unknown
5:00 AM 39.6 °F 37.4 °F 36.0 °F 87% 29.97 in - SSE 3.5 mph - N/A   Unknown
6:00 AM 40.5 °F 34.1 °F 36.3 °F 85% 29.96 in - ESE 10.4 mph - N/A   Unknown
7:00 AM 40.3 °F 31.3 °F 35.8 °F 84% 29.96 in - ESE 18.4 mph - N/A   Unknown
8:00 AM 40.1 °F 31.3 °F 36.9 °F 88% 29.94 in - ESE 17.3 mph - N/A   Unknown
9:00 AM 39.9 °F 31.4 °F 36.9 °F 89% 29.95 in - ESE 16.1 mph - N/A   Unknown
10:00 AM 40 °F - 37 °F 83% 29.94 in - ESE 18.4 mph - -  
10:00 AM 40.1 °F 31.0 °F 36.7 °F 88% 29.94 in - ESE 18.4 mph - N/A   Unknown
11:00 AM 40.6 °F 30.9 °F 37.8 °F 89% 29.93 in - ESE 21.9 mph - N/A   Unknown
12:00 PM 41.2 °F 32.1 °F 38.1 °F 89% 29.94 in - ESE 19.6 mph - N/A   Unknown
1:00 PM 41.7 °F 32.1 °F 39.0 °F 90% 29.94 in - ESE 23.0 mph - N/A   Unknown
2:00 PM 41.5 °F 32.1 °F 38.7 °F 89% 29.94 in - East 21.9 mph - N/A   Unknown
4:00 PM 42 °F - 39 °F 84% 29.95 in - East 20.7 mph - -  
4:00 PM 41.5 °F 32.4 °F 38.8 °F 90% 29.95 in - East 20.7 mph - N/A   Unknown
6:00 PM 41.7 °F 32.9 °F 39.2 °F 91% 29.95 in - ESE 19.6 mph - N/A   Unknown
7:00 PM 41.9 °F 33.7 °F 39.4 °F 91% 29.96 in - ESE 17.3 mph - N/A   Unknown
8:00 PM 41.7 °F 33.7 °F 39.2 °F 91% 29.98 in - ESE 16.1 mph - N/A   Unknown
9:00 PM 41.9 °F 33.7 °F 39.4 °F 91% 29.97 in - ESE 17.3 mph - N/A   Unknown
10:00 PM 42 °F - 39 °F 87% 29.97 in - ESE 18.4 mph - -  
10:00 PM 41.9 °F 33.4 °F 39.4 °F 91% 29.97 in - ESE 18.4 mph - N/A   Unknown
11:00 PM 41.7 °F 33.1 °F 39.0 °F 90% 29.96 in - ESE 18.4 mph - N/A   Unknown